Time,TemperatureF,DewpointF,PressureIn,WindDirection,WindDirectionDegrees,WindSpeedMPH,WindSpeedGustMPH,Humidity,HourlyPrecipIn,Conditions,Clouds,dailyrainin,SoftwareType,DateUTC
2013-03-20 00:00:00,44.5,24.5,29.68,SSW,202,3.0,11.0,45,0.11,,,0.03,VWS V14.01,2013-03-20 07:00:00,
2013-03-20 00:11:00,44.6,25.0,29.67,SSE,159,4.0,8.0,47,0.06,,,0.01,weatherlink.com 1.10,2013-03-20 07:11:00,
2013-03-20 00:26:00,44.7,26.0,29.67,WNW,291,1.0,12.0,49,0.05,,,0.01,weatherlink.com 1.10,2013-03-20 07:26:00,
2013-03-20 00:30:00,44.7,26.7,29.67,South,180,3.0,13.0,49,0.09,,,0.04,VWS V14.01,2013-03-20 07:30:00,
2013-03-20 00:41:00,44.8,27.0,29.66,WSW,242,4.0,9.0,49,0.03,,,0.01,weatherlink.com 1.10,2013-03-20 07:41:00,
2013-03-20 00:56:00,44.6,26.0,29.66,East,83,6.0,10.0,49,0.01,,,0.01,weatherlink.com 1.10,2013-03-20 07:56:00,
2013-03-20 01:00:00,44.5,26.5,29.66,SSW,202,3.0,10.0,49,0.04,,,0.04,VWS V14.01,2013-03-20 08:00:00,
2013-03-20 01:11:00,44.5,26.0,29.65,South,180,4.0,9.0,48,0.00,,,0.01,weatherlink.com 1.10,2013-03-20 08:11:00,
2013-03-20 01:26:00,44.5,25.0,29.65,West,273,5.0,7.0,46,0.00,,,0.01,weatherlink.com 1.10,2013-03-20 08:26:00,
2013-03-20 01:30:00,44.5,25.0,29.65,SSW,202,2.0,9.0,46,0.01,,,0.04,VWS V14.01,2013-03-20 08:30:00,
2013-03-20 01:41:00,44.7,24.0,29.64,South,181,4.0,9.0,44,0.00,,,0.01,weatherlink.com 1.10,2013-03-20 08:41:00,
2013-03-20 01:56:00,45.1,24.0,29.64,SE,131,2.0,8.0,44,0.00,,,0.01,weatherlink.com 1.10,2013-03-20 08:56:00,
2013-03-20 02:00:00,45.1,24.5,29.64,South,180,3.0,9.0,44,0.00,,,0.04,VWS V14.01,2013-03-20 09:00:00,
2013-03-20 02:11:00,45.2,24.0,29.63,SW,215,3.0,8.0,43,0.01,,,0.02,weatherlink.com 1.10,2013-03-20 09:11:00,
2013-03-20 02:26:00,45.5,23.0,29.63,SW,236,3.0,6.0,42,0.02,,,0.03,weatherlink.com 1.10,2013-03-20 09:26:00,
2013-03-20 02:30:00,45.5,23.8,29.62,SSW,202,3.0,9.0,42,0.02,,,0.06,VWS V14.01,2013-03-20 09:30:00,
2013-03-20 02:41:00,45.8,24.0,29.62,SSW,192,1.0,10.0,42,0.02,,,0.03,weatherlink.com 1.10,2013-03-20 09:41:00,
2013-03-20 02:57:00,46.2,24.0,29.61,ESE,105,1.0,8.0,41,0.02,,,0.03,weatherlink.com 1.10,2013-03-20 09:57:00,
2013-03-20 03:00:00,46.3,23.9,29.60,SSW,202,3.0,10.0,41,0.02,,,0.06,VWS V14.01,2013-03-20 10:00:00,
2013-03-20 03:11:00,46.7,23.0,29.59,SW,227,0.0,7.0,40,0.01,,,0.03,weatherlink.com 1.10,2013-03-20 10:11:00,
2013-03-20 03:27:00,47.0,24.0,29.59,SE,143,2.0,7.0,40,0.00,,,0.03,weatherlink.com 1.10,2013-03-20 10:27:00,
2013-03-20 03:30:00,47.1,24.0,29.58,South,180,2.0,8.0,40,0.02,,,0.06,VWS V14.01,2013-03-20 10:30:00,
2013-03-20 03:42:00,47.4,24.0,29.58,SSE,161,2.0,8.0,40,0.01,,,0.04,weatherlink.com 1.10,2013-03-20 10:42:00,
2013-03-20 03:57:00,47.7,24.0,29.57,SSW,200,4.0,11.0,40,0.01,,,0.04,weatherlink.com 1.10,2013-03-20 10:57:00,
2013-03-20 04:00:00,47.7,24.6,29.57,SSW,202,3.0,11.0,40,0.02,,,0.08,VWS V14.01,2013-03-20 11:00:00,
2013-03-20 04:12:00,47.9,25.0,29.56,SSE,147,2.0,9.0,41,0.03,,,0.06,weatherlink.com 1.10,2013-03-20 11:12:00,
2013-03-20 04:30:00,48.1,25.5,29.56,SSW,202,2.0,9.0,41,0.05,,,0.11,VWS V14.01,2013-03-20 11:30:00,
2013-03-20 04:42:00,48.2,25.0,29.55,SSW,192,2.0,5.0,40,0.05,,,0.09,weatherlink.com 1.10,2013-03-20 11:42:00,
2013-03-20 04:57:00,48.5,25.0,29.54,SE,146,0.0,3.0,40,0.04,,,0.09,weatherlink.com 1.10,2013-03-20 11:57:00,
2013-03-20 05:00:00,48.5,25.3,29.54,SSW,202,1.0,5.0,40,0.06,,,0.12,VWS V14.01,2013-03-20 12:00:00,
2013-03-20 05:12:00,48.6,25.0,29.53,SW,219,2.0,6.0,40,0.04,,,0.10,weatherlink.com 1.10,2013-03-20 12:12:00,
2013-03-20 05:27:00,48.8,25.0,29.52,NE,53,0.0,9.0,39,0.02,,,0.10,weatherlink.com 1.10,2013-03-20 12:27:00,
2013-03-20 05:30:00,48.8,25.6,29.52,South,180,1.0,9.0,40,0.05,,,0.13,VWS V14.01,2013-03-20 12:30:00,
2013-03-20 05:42:00,48.9,25.0,29.52,SSE,164,0.0,2.0,40,0.01,,,0.10,weatherlink.com 1.10,2013-03-20 12:42:00,
2013-03-20 05:57:00,49.2,26.0,29.53,South,189,6.0,7.0,40,0.01,,,0.10,weatherlink.com 1.10,2013-03-20 12:57:00,
2013-03-20 06:00:00,49.2,25.9,29.53,SSW,202,1.0,8.0,40,0.02,,,0.13,VWS V14.01,2013-03-20 13:00:00,
2013-03-20 06:12:00,49.6,27.0,29.53,South,188,4.0,7.0,41,0.01,,,0.11,weatherlink.com 1.10,2013-03-20 13:12:00,
2013-03-20 06:27:00,49.8,29.0,29.53,SSW,201,5.0,10.0,45,0.03,,,0.13,weatherlink.com 1.10,2013-03-20 13:27:00,
2013-03-20 06:30:00,49.8,29.3,29.53,South,180,3.0,13.0,45,0.04,,,0.16,VWS V14.01,2013-03-20 13:30:00,
2013-03-20 06:42:00,49.8,30.0,29.53,SSW,206,2.0,7.0,47,0.04,,,0.14,weatherlink.com 1.10,2013-03-20 13:42:00,
2013-03-20 06:57:00,49.9,31.0,29.53,SSW,194,1.0,10.0,48,0.05,,,0.15,weatherlink.com 1.10,2013-03-20 13:57:00,
2013-03-20 07:00:00,49.9,31.0,29.53,SSW,202,3.0,10.0,48,0.05,,,0.18,VWS V14.01,2013-03-20 14:00:00,
2013-03-20 07:12:00,49.7,31.0,29.52,SE,125,4.0,7.0,48,0.05,,,0.16,weatherlink.com 1.10,2013-03-20 14:12:00,
2013-03-20 07:27:00,49.6,30.0,29.53,SW,217,1.0,6.0,47,0.04,,,0.17,weatherlink.com 1.10,2013-03-20 14:27:00,
2013-03-20 07:30:00,49.6,30.2,29.53,SSW,202,3.0,7.0,47,0.07,,,0.20,VWS V14.01,2013-03-20 14:30:00,
2013-03-20 07:42:00,49.6,29.0,29.54,SSW,205,4.0,9.0,45,0.06,,,0.20,weatherlink.com 1.10,2013-03-20 14:42:00,
2013-03-20 07:57:00,49.4,31.0,29.56,WSW,240,13.0,21.0,49,0.10,,,0.25,weatherlink.com 1.10,2013-03-20 14:57:00,
2013-03-20 08:00:00,49.4,33.0,29.56,SSW,202,5.0,21.0,53,0.12,,,0.28,VWS V14.01,2013-03-20 15:00:00,
2013-03-20 08:12:00,47.8,40.0,29.57,SW,225,6.0,16.0,73,0.09,,,0.25,weatherlink.com 1.10,2013-03-20 15:12:00,
2013-03-20 08:27:00,47.6,37.0,29.59,WSW,249,5.0,18.0,67,0.08,,,0.25,weatherlink.com 1.10,2013-03-20 15:27:00,
2013-03-20 08:30:00,47.6,37.2,29.58,SW,225,8.0,18.0,67,0.10,,,0.28,VWS V14.01,2013-03-20 15:30:00,
2013-03-20 08:42:00,47.5,36.0,29.59,WSW,251,5.0,9.0,65,0.05,,,0.25,weatherlink.com 1.10,2013-03-20 15:42:00,
2013-03-20 08:57:00,47.2,39.0,29.61,WSW,238,5.0,11.0,73,0.00,,,0.25,weatherlink.com 1.10,2013-03-20 15:57:00,
2013-03-20 09:00:00,47.1,38.9,29.61,SW,225,6.0,17.0,73,0.08,,,0.28,VWS V14.01,2013-03-20 16:00:00,
2013-03-20 09:12:00,46.9,39.0,29.63,WSW,245,4.0,13.0,75,0.00,,,0.25,weatherlink.com 1.10,2013-03-20 16:12:00,
2013-03-20 09:27:00,46.5,39.0,29.65,East,86,3.0,9.0,74,0.00,,,0.25,weatherlink.com 1.10,2013-03-20 16:27:00,
2013-03-20 09:30:00,46.5,38.7,29.65,WSW,248,5.0,13.0,74,0.00,,,0.28,VWS V14.01,2013-03-20 16:30:00,
2013-03-20 09:42:00,46.4,40.0,29.66,SW,229,2.0,11.0,77,0.00,,,0.25,weatherlink.com 1.10,2013-03-20 16:42:00,
2013-03-20 09:57:00,47.8,38.0,29.66,West,263,5.0,12.0,69,0.00,,,0.25,weatherlink.com 1.10,2013-03-20 16:57:00,
2013-03-20 10:00:00,47.8,38.1,29.66,WSW,248,4.0,12.0,69,0.00,,,0.28,VWS V14.01,2013-03-20 17:00:00,
2013-03-20 10:12:00,48.0,43.0,29.68,WSW,250,12.0,15.0,84,0.01,,,0.26,weatherlink.com 1.10,2013-03-20 17:12:00,
2013-03-20 10:27:00,47.7,43.0,29.69,SW,226,19.0,20.0,83,0.01,,,0.26,weatherlink.com 1.10,2013-03-20 17:27:00,
2013-03-20 10:30:00,47.7,43.1,29.69,SSW,202,9.0,20.0,84,0.01,,,0.29,VWS V14.01,2013-03-20 17:30:00,
2013-03-20 10:42:00,48.0,43.0,29.70,SW,235,6.0,17.0,83,0.01,,,0.26,weatherlink.com 1.10,2013-03-20 17:42:00,
2013-03-20 10:57:00,47.2,42.0,29.72,SSW,205,5.0,13.0,83,0.01,,,0.26,weatherlink.com 1.10,2013-03-20 17:57:00,
2013-03-20 11:00:00,47.2,42.3,29.72,SSW,202,8.0,18.0,83,0.01,,,0.29,VWS V14.01,2013-03-20 18:00:00,
2013-03-20 11:12:00,47.1,42.0,29.73,West,264,6.0,13.0,83,0.00,,,0.26,weatherlink.com 1.10,2013-03-20 18:12:00,
2013-03-20 11:27:00,46.3,41.0,29.74,SSW,208,3.0,11.0,81,0.00,,,0.26,weatherlink.com 1.10,2013-03-20 18:27:00,
2013-03-20 11:30:00,46.3,40.8,29.74,SSW,202,7.0,17.0,81,0.01,,,0.29,VWS V14.01,2013-03-20 18:30:00,
2013-03-20 11:43:00,45.9,41.0,29.75,SW,227,6.0,14.0,83,0.00,,,0.26,weatherlink.com 1.10,2013-03-20 18:43:00,
2013-03-20 11:58:00,45.0,40.0,29.76,South,190,10.0,17.0,81,0.00,,,0.26,weatherlink.com 1.10,2013-03-20 18:58:00,
2013-03-20 12:00:00,45.0,39.5,29.76,SSW,202,7.0,17.0,81,0.00,,,0.29,VWS V14.01,2013-03-20 19:00:00,
2013-03-20 12:13:00,44.7,38.0,29.77,SSW,211,3.0,13.0,78,0.00,,,0.26,weatherlink.com 1.10,2013-03-20 19:13:00,
2013-03-20 12:28:00,45.3,40.0,29.78,South,186,10.0,13.0,81,0.00,,,0.26,weatherlink.com 1.10,2013-03-20 19:28:00,
2013-03-20 12:30:00,45.3,39.8,29.78,SSW,202,6.0,13.0,81,0.00,,,0.29,VWS V14.01,2013-03-20 19:30:00,
2013-03-20 12:43:00,46.4,42.0,29.79,SW,226,10.0,19.0,84,0.01,,,0.27,weatherlink.com 1.10,2013-03-20 19:43:00,
2013-03-20 12:58:00,48.8,44.0,29.80,SW,219,6.0,18.0,83,0.01,,,0.27,weatherlink.com 1.10,2013-03-20 19:58:00,
2013-03-20 13:00:00,48.8,43.9,29.80,SSW,202,9.0,19.0,83,0.01,,,0.30,VWS V14.01,2013-03-20 20:00:00,
2013-03-20 13:13:00,45.2,40.0,29.82,SW,225,10.0,15.0,83,0.02,,,0.28,weatherlink.com 1.10,2013-03-20 20:13:00,
2013-03-20 13:28:00,44.7,40.0,29.84,SW,218,6.0,13.0,83,0.04,,,0.30,weatherlink.com 1.10,2013-03-20 20:28:00,
2013-03-20 13:30:00,44.8,40.0,29.83,WSW,248,7.0,15.0,83,0.04,,,0.33,VWS V14.01,2013-03-20 20:30:00,
2013-03-20 13:43:00,43.8,39.0,29.83,SSE,158,6.0,15.0,82,0.04,,,0.31,weatherlink.com 1.10,2013-03-20 20:43:00,
2013-03-20 13:58:00,45.5,41.0,29.85,West,261,7.0,16.0,83,0.04,,,0.31,weatherlink.com 1.10,2013-03-20 20:58:00,
2013-03-20 14:00:00,45.5,40.7,29.85,WSW,248,8.0,18.0,83,0.05,,,0.34,VWS V14.01,2013-03-20 21:00:00,
2013-03-20 14:13:00,45.4,41.0,29.85,SSW,213,3.0,12.0,83,0.03,,,0.31,weatherlink.com 1.10,2013-03-20 21:13:00,
2013-03-20 14:28:00,44.7,40.0,29.86,SW,219,4.0,14.0,83,0.01,,,0.31,weatherlink.com 1.10,2013-03-20 21:28:00,
2013-03-20 14:30:00,44.7,39.9,29.86,WSW,248,7.0,14.0,83,0.04,,,0.34,VWS V14.01,2013-03-20 21:30:00,
2013-03-20 14:43:00,42.6,37.0,29.87,SW,224,17.0,17.0,81,0.04,,,0.35,weatherlink.com 1.10,2013-03-20 21:43:00,
2013-03-20 14:58:00,43.3,36.0,29.87,SSW,210,9.0,16.0,75,0.04,,,0.35,weatherlink.com 1.10,2013-03-20 21:58:00,
2013-03-20 15:00:00,43.3,35.9,29.87,WSW,248,7.0,17.0,75,0.05,,,0.38,VWS V14.01,2013-03-20 22:00:00,
2013-03-20 15:13:00,42.9,36.0,29.88,West,269,12.0,12.0,75,0.07,,,0.38,weatherlink.com 1.10,2013-03-20 22:13:00,
2013-03-20 15:28:00,44.0,33.0,29.89,SW,216,6.0,9.0,65,0.07,,,0.38,weatherlink.com 1.10,2013-03-20 22:28:00,
2013-03-20 15:30:00,44.0,32.6,29.89,WSW,248,5.0,12.0,64,0.07,,,0.41,VWS V14.01,2013-03-20 22:30:00,
2013-03-20 15:43:00,42.3,36.0,29.91,WSW,237,11.0,14.0,78,0.06,,,0.41,weatherlink.com 1.10,2013-03-20 22:43:00,
2013-03-20 15:58:00,43.7,36.0,29.91,WSW,238,7.0,12.0,75,0.06,,,0.41,weatherlink.com 1.10,2013-03-20 22:58:00,
2013-03-20 16:00:00,43.7,36.0,29.91,WSW,248,7.0,15.0,74,0.10,,,0.44,VWS V14.01,2013-03-20 23:00:00,
2013-03-20 16:13:00,43.6,37.0,29.93,West,261,6.0,15.0,78,0.04,,,0.42,weatherlink.com 1.10,2013-03-20 23:13:00,
2013-03-20 16:28:00,42.8,37.0,29.93,West,280,10.0,15.0,80,0.04,,,0.42,weatherlink.com 1.10,2013-03-20 23:28:00,
2013-03-20 16:30:00,42.9,37.2,29.93,WSW,248,7.0,15.0,80,0.07,,,0.45,VWS V14.01,2013-03-20 23:30:00,
2013-03-20 16:43:00,42.5,36.0,29.94,NW,313,4.0,13.0,77,0.01,,,0.42,weatherlink.com 1.10,2013-03-20 23:43:00,
2013-03-20 16:58:00,42.0,36.0,29.95,WSW,255,11.0,19.0,79,0.02,,,0.43,weatherlink.com 1.10,2013-03-20 23:58:00,
2013-03-20 17:00:00,42.0,36.0,29.95,West,270,8.0,19.0,79,0.05,,,0.46,VWS V14.01,2013-03-21 00:00:00,
2013-03-20 17:13:00,41.9,37.0,29.96,WSW,243,5.0,19.0,84,0.01,,,0.43,weatherlink.com 1.10,2013-03-21 00:13:00,
2013-03-20 17:28:00,40.6,35.0,29.97,West,270,5.0,23.0,81,0.02,,,0.44,weatherlink.com 1.10,2013-03-21 00:28:00,
2013-03-20 17:30:00,40.6,35.2,29.97,West,270,9.0,23.0,81,0.03,,,0.47,VWS V14.01,2013-03-21 00:30:00,
2013-03-20 17:43:00,40.5,35.0,29.97,WNW,284,12.0,23.0,81,0.02,,,0.44,weatherlink.com 1.10,2013-03-21 00:43:00,
2013-03-20 17:58:00,41.1,36.0,29.99,West,281,12.0,15.0,83,0.01,,,0.44,weatherlink.com 1.10,2013-03-21 00:58:00,
2013-03-20 18:00:00,41.1,36.3,29.99,West,270,9.0,23.0,83,0.02,,,0.47,VWS V14.01,2013-03-21 01:00:00,
2013-03-20 18:14:00,40.7,36.0,30.00,WSW,251,6.0,18.0,84,0.01,,,0.44,weatherlink.com 1.10,2013-03-21 01:14:00,
2013-03-20 18:29:00,40.0,35.0,30.01,WSW,257,7.0,16.0,83,0.00,,,0.44,weatherlink.com 1.10,2013-03-21 01:29:00,
2013-03-20 18:30:00,40.1,35.4,30.01,West,270,8.0,18.0,83,0.01,,,0.47,VWS V14.01,2013-03-21 01:30:00,
2013-03-20 18:44:00,39.5,34.0,30.01,West,265,7.0,14.0,80,0.00,,,0.44,weatherlink.com 1.10,2013-03-21 01:44:00,
2013-03-20 18:59:00,39.5,34.0,30.03,West,259,8.0,18.0,81,0.01,,,0.45,weatherlink.com 1.10,2013-03-21 01:59:00,
2013-03-20 19:00:00,39.6,34.0,30.03,West,270,6.0,18.0,80,0.01,,,0.48,VWS V14.01,2013-03-21 02:00:00,
2013-03-20 19:14:00,38.9,34.0,30.03,SW,226,2.0,10.0,81,0.01,,,0.45,weatherlink.com 1.10,2013-03-21 02:14:00,
2013-03-20 19:29:00,38.9,34.0,30.05,WNW,301,2.0,10.0,81,0.01,,,0.45,weatherlink.com 1.10,2013-03-21 02:29:00,
2013-03-20 19:30:00,38.9,33.3,30.05,SW,225,5.0,12.0,80,0.01,,,0.48,VWS V14.01,2013-03-21 02:30:00,
2013-03-20 19:44:00,36.3,30.0,30.06,SSW,206,4.0,10.0,78,0.08,,,0.52,weatherlink.com 1.10,2013-03-21 02:44:00,
2013-03-20 19:59:00,36.4,27.0,30.07,West,269,0.0,7.0,68,0.08,,,0.53,weatherlink.com 1.10,2013-03-21 02:59:00,
2013-03-20 20:00:00,36.3,27.1,30.07,West,270,5.0,18.0,69,0.08,,,0.55,VWS V14.01,2013-03-21 03:00:00,
2013-03-20 20:14:00,36.9,26.0,30.08,SW,220,5.0,8.0,66,0.09,,,0.54,weatherlink.com 1.10,2013-03-21 03:14:00,
2013-03-20 20:29:00,36.8,29.0,30.07,SSW,192,4.0,10.0,72,0.10,,,0.55,weatherlink.com 1.10,2013-03-21 03:29:00,
2013-03-20 20:30:00,36.8,28.6,30.07,SW,225,5.0,19.0,72,0.10,,,0.58,VWS V14.01,2013-03-21 03:30:00,
2013-03-20 20:44:00,36.5,28.0,30.08,SW,236,0.0,1.0,70,0.03,,,0.55,weatherlink.com 1.10,2013-03-21 03:44:00,
2013-03-20 20:59:00,35.6,26.0,30.09,SW,236,0.0,1.0,69,0.02,,,0.55,weatherlink.com 1.10,2013-03-21 03:59:00,
2013-03-20 21:00:00,35.7,26.9,30.09,SW,225,1.0,5.0,70,0.10,,,0.58,VWS V14.01,2013-03-21 04:00:00,
2013-03-20 21:14:00,34.9,25.0,30.10,SW,236,0.0,2.0,66,0.01,,,0.55,weatherlink.com 1.10,2013-03-21 04:14:00,
2013-03-20 21:29:00,34.8,21.0,30.12,West,267,0.0,1.0,58,0.00,,,0.55,weatherlink.com 1.10,2013-03-21 04:29:00,
2013-03-20 21:30:00,34.8,22.0,30.11,SW,225,0.0,2.0,59,0.03,,,0.58,VWS V14.01,2013-03-21 04:30:00,
2013-03-20 21:44:00,35.0,19.0,30.13,West,267,0.0,2.0,52,0.00,,,0.55,weatherlink.com 1.10,2013-03-21 04:44:00,
2013-03-20 21:59:00,35.6,18.0,30.14,SSW,199,1.0,6.0,49,0.02,,,0.57,weatherlink.com 1.10,2013-03-21 04:59:00,
2013-03-20 22:00:00,35.5,18.2,30.14,West,270,1.0,6.0,49,0.02,,,0.60,VWS V14.01,2013-03-21 05:00:00,
2013-03-20 22:14:00,36.0,20.0,30.14,SSW,193,0.0,4.0,53,0.03,,,0.58,weatherlink.com 1.10,2013-03-21 05:14:00,
2013-03-20 22:29:00,35.7,22.0,30.14,SSW,194,0.0,1.0,58,0.03,,,0.58,weatherlink.com 1.10,2013-03-21 05:29:00,
2013-03-20 22:30:00,35.7,22.4,30.14,SSW,202,1.0,5.0,58,0.03,,,0.61,VWS V14.01,2013-03-21 05:30:00,
2013-03-20 22:44:00,35.2,21.0,30.16,SSW,198,0.0,2.0,57,0.03,,,0.58,weatherlink.com 1.10,2013-03-21 05:44:00,
2013-03-20 22:59:00,35.0,19.0,30.17,SSW,198,0.0,1.0,53,0.02,,,0.59,weatherlink.com 1.10,2013-03-21 05:59:00,
2013-03-20 23:00:00,35.0,20.0,30.17,SSW,202,0.0,3.0,54,0.03,,,0.61,VWS V14.01,2013-03-21 06:00:00,
2013-03-20 23:14:00,35.3,18.0,30.18,South,169,2.0,3.0,49,0.01,,,0.59,weatherlink.com 1.10,2013-03-21 06:14:00,
2013-03-20 23:29:00,35.2,17.0,30.18,South,178,0.0,2.0,48,0.01,,,0.59,weatherlink.com 1.10,2013-03-21 06:29:00,
2013-03-20 23:30:00,35.2,18.0,30.18,South,180,0.0,3.0,49,0.02,,,0.62,VWS V14.01,2013-03-21 06:30:00,
2013-03-20 23:44:00,35.0,17.0,30.18,SW,227,2.0,3.0,48,0.01,,,0.59,weatherlink.com 1.10,2013-03-21 06:44:00,
2013-03-20 23:59:00,35.3,16.0,30.18,SSW,197,2.0,7.0,46,0.01,,,0.00,weatherlink.com 1.10,2013-03-21 06:59:00,